User: anonymous   Login
Location: Unspecified
(0.0000°N, 0.0000°E)
Time: 07:04:59
(UTC+00:00)
Language:

ZACube-1 - Orbit

View from above orbital plane
View from above orbital plane
View from above satellite
View from above satellite

Ground track
Ground track

The orbit data is extracted from the following two-line orbital elements,

1 39417U 13066B   19083.16156825  .00000152  00000-0  25614-4 0  9995
2 39417  97.5683 101.5021 0057903 318.8356  40.8497 14.81072346288233
Epoch (UTC): 24 March 2019 03:52:39
Eccentricity: 0.0057903
inclination: 97.5683°
perigee height: 585 km
apogee height: 666 km
right ascension of ascending node: 101.5021°
argument of perigee: 318.8356°
revolutions per day: 14.81072346
mean anomaly at epoch: 40.8497°
orbit number at epoch: 28823

The dashed part of the orbit path shows where the satellite is in the earth's shadow,  

DLR